Weather History for KSLB - March, 2012

Change the Weather History Date:

Monday, March 5, 2012

  Actual Average (WUND) Record (WUND)
Temperature  
Mean Temperature 28 °F -  
Max Temperature 42 °F - - (-1)
Min Temperature 13 °F - - (-1)
Degree Days  
Heating Degree Days 38    
Moisture  
Dew Point 23 °F    
Average Humidity 84    
Maximum Humidity 98    
Minimum Humidity 66    
Precipitation  
Precipitation 0.00 in - - ()
Sea Level Pressure  
Sea Level Pressure 30.09 in    
Wind  
Wind Speed 11 mph (SSW)    
Max Wind Speed 23 mph    
Max Gust Speed 29 mph    
Visibility 9 miles    
Events      
Averages and records for this station are not official NWS values.
T = Trace of Precipitation, MM = Missing Value Source: NWS Daily Summary

Daily Weather History Graph

Daily Weather History Graph

Search for Another Location

Airport or City:

Trip Planner

Search our weather history database for the weather conditions in past years. The results will help you decide how hot, cold, wet, or windy it might be!

Date:

Astronomy

Mar. 05, 2012 Rise Set
Actual Time 6:49 AM CST 6:16 PM CST
Civil Twilight 6:20 AM CST 6:44 PM CST
Nautical Twilight 5:48 AM CST 7:16 PM CST
Astronomical Twilight 5:15 AM CST 7:49 PM CST
Moon 3:32 PM CST (3/5) 4:52 AM CST (3/5)
Length of Visible Light 12h 23m
Length of Day
11h 27m
Waxing Gibbous, 91% of the Moon is Illuminated
Mar 5
Waxing Gibbous
Mar 8
Full
Mar 14
Last Quarter
Mar 22
New
Mar 30
First Quarter

Hourly Weather History & Observations

Time (CST) Temp. Windchill Dew Point Humidity Pressure Visibility Wind Dir Wind Speed Gust Speed Precip Events Conditions
12:15 AM 15.6 °F 5.9 °F 14.5 °F 95% 30.14 in 10.0 mi WNW 6.9 mph - N/A   Clear
12:55 AM 15.4 °F 3.0 °F 14.7 °F 97% 30.17 in 7.0 mi West 10.4 mph - N/A   Clear
1:15 AM 15.4 °F 3.8 °F 14.7 °F 97% 30.17 in 10.0 mi WNW 9.2 mph - N/A   Clear
1:35 AM 16.7 °F 6.2 °F 15.6 °F 96% 30.17 in 10.0 mi WNW 8.1 mph - N/A   Clear
1:55 AM 15.6 °F 5.9 °F 14.9 °F 97% 30.17 in 7.0 mi West 6.9 mph - N/A   Clear
2:15 AM 15.3 °F 4.4 °F 14.7 °F 98% 30.18 in 7.0 mi West 8.1 mph - N/A   Clear
2:35 AM 15.8 °F 5.1 °F 15.3 °F 98% 30.18 in 7.0 mi West 8.1 mph - N/A   Clear
2:55 AM 15.4 °F 5.6 °F 14.7 °F 97% 30.18 in 7.0 mi West 6.9 mph - N/A   Clear
3:15 AM 15.6 °F 7.0 °F 14.7 °F 96% 30.18 in 10.0 mi West 5.8 mph - N/A   Clear
3:35 AM 15.6 °F 7.0 °F 14.7 °F 96% 30.18 in 10.0 mi WSW 5.8 mph - N/A   Clear
3:55 AM 14.7 °F 4.8 °F 14.0 °F 97% 30.18 in 7.0 mi WSW 6.9 mph - N/A   Clear
4:15 AM 14.7 °F 5.9 °F 13.8 °F 96% 30.18 in 7.0 mi WSW 5.8 mph - N/A   Clear
4:35 AM 14.4 °F 5.5 °F 13.6 °F 97% 30.18 in 7.0 mi SW 5.8 mph - N/A   Clear
4:55 AM 13.8 °F - 13.1 °F 97% 30.18 in 7.0 mi Calm Calm - N/A   Clear
5:15 AM 15.1 °F 6.4 °F 14.2 °F 96% 30.18 in 10.0 mi SW 5.8 mph - N/A   Clear
5:35 AM 14.2 °F 5.3 °F 13.6 °F 98% 30.19 in 7.0 mi SW 5.8 mph - N/A   Clear
5:55 AM 14.9 °F 7.5 °F 14.5 °F 98% 30.19 in 7.0 mi SW 4.6 mph - N/A   Clear
6:15 AM 14.5 °F 4.6 °F 13.8 °F 97% 30.19 in 7.0 mi SW 6.9 mph - N/A   Clear
6:35 AM 14.7 °F 3.8 °F 13.6 °F 95% 30.17 in 7.0 mi SSW 8.1 mph - N/A   Clear
6:55 AM 14.0 °F 2.9 °F 13.1 °F 96% 30.18 in 7.0 mi South 8.1 mph - N/A   Scattered Clouds
7:15 AM 14.9 °F 5.0 °F 14.0 °F 96% 30.20 in 7.0 mi SSW 6.9 mph - N/A   Scattered Clouds
7:35 AM 16.5 °F 6.9 °F 15.4 °F 96% 30.21 in 7.0 mi South 6.9 mph - N/A   Scattered Clouds
7:55 AM 19.0 °F 11.1 °F 17.6 °F 94% 30.21 in 10.0 mi South 5.8 mph - N/A   Mostly Cloudy
8:15 AM 20.1 °F 10.3 °F 18.5 °F 93% 30.21 in 10.0 mi South 8.1 mph - N/A   Mostly Cloudy
8:35 AM 21.9 °F 11.7 °F 20.1 °F 93% 30.21 in 10.0 mi South 9.2 mph - N/A   Mostly Cloudy
9:15 AM 26.4 °F 15.0 °F 23.7 °F 90% 30.19 in 10.0 mi South 13.8 mph - N/A   Clear
9:35 AM 28.0 °F 16.5 °F 25.3 °F 90% 30.19 in 7.0 mi South 15.0 mph - N/A   Clear
9:55 AM 29.3 °F 17.7 °F 25.9 °F 87% 30.18 in 7.0 mi South 16.1 mph - N/A   Clear
10:15 AM 30.2 °F 18.1 °F 26.6 °F 86% 30.18 in 10.0 mi South 18.4 mph - N/A   Clear
10:35 AM 31.3 °F 19.9 °F 27.3 °F 85% 30.17 in 10.0 mi SSW 17.3 mph - N/A   Clear
10:55 AM 32.0 °F 20.1 °F 28.2 °F 86% 30.16 in 10.0 mi South 19.6 mph - N/A   Clear
11:15 AM 33.1 °F 21.2 °F 28.8 °F 84% 30.15 in 10.0 mi South 20.7 mph - N/A   Clear
11:35 AM 34.0 °F 21.8 °F 28.8 °F 81% 30.13 in 10.0 mi South 23.0 mph - N/A   Clear
11:55 AM 34.9 °F 23.3 °F 30.0 °F 82% 30.12 in 10.0 mi South 21.9 mph 26.5 mph N/A   Clear
12:15 PM 35.2 °F 24.1 °F 28.4 °F 76% 30.11 in 10.0 mi South 20.7 mph 26.5 mph N/A   Clear
12:35 PM 36.0 °F 25.3 °F 29.3 °F 77% 30.09 in 10.0 mi South 19.6 mph 26.5 mph N/A   Clear
12:55 PM 37.0 °F 26.7 °F 30.2 °F 76% 30.08 in 10.0 mi South 19.6 mph 25.3 mph N/A   Clear
1:15 PM 38.3 °F 28.1 °F 30.2 °F 73% 30.06 in 10.0 mi South 20.7 mph 26.5 mph N/A   Clear
1:35 PM 38.5 °F 28.3 °F 30.6 °F 73% 30.05 in 10.0 mi South 20.7 mph 26.5 mph N/A   Clear
1:55 PM 39.7 °F 29.5 °F 31.3 °F 72% 30.03 in 10.0 mi South 23.0 mph - N/A   Clear
2:15 PM 40.5 °F 30.4 °F 30.9 °F 69% 30.02 in 10.0 mi SSW 23.0 mph 28.8 mph N/A   Clear
2:35 PM 41.0 °F 31.6 °F 30.7 °F 67% 30.01 in 10.0 mi South 20.7 mph 26.5 mph N/A   Clear
2:55 PM 41.4 °F 32.1 °F 31.6 °F 68% 29.99 in 10.0 mi South 20.7 mph 25.3 mph N/A   Clear
3:15 PM 41.9 °F 34.0 °F 32.4 °F 69% 29.98 in 10.0 mi South 16.1 mph - N/A   Clear
3:35 PM 42.1 °F 33.1 °F 31.3 °F 66% 29.97 in 10.0 mi South 20.7 mph 28.8 mph N/A   Clear
3:55 PM 42.3 °F 33.3 °F 31.8 °F 67% 29.96 in 10.0 mi South 20.7 mph 28.8 mph N/A   Clear
4:15 PM 42.3 °F 33.8 °F 32.0 °F 67% 29.96 in 10.0 mi South 18.4 mph - N/A   Clear
4:35 PM 42.1 °F 34.2 °F 31.3 °F 66% 29.96 in 10.0 mi SSW 16.1 mph - N/A   Clear
4:55 PM 41.9 °F 34.0 °F 31.3 °F 66% 29.95 in 10.0 mi SSW 16.1 mph - N/A   Clear
5:15 PM 40.6 °F 33.4 °F 31.3 °F 69% 29.95 in 10.0 mi South 12.7 mph - N/A   Clear
5:55 PM 37.9 °F 30.0 °F 30.2 °F 74% 29.93 in 10.0 mi South 12.7 mph - N/A   Clear
6:15 PM 36.7 °F 28.0 °F 29.5 °F 75% 29.93 in 10.0 mi South 13.8 mph - N/A   Clear
6:55 PM 36.0 °F 27.5 °F 28.4 °F 74% 29.92 in 10.0 mi South 12.7 mph - N/A   Clear
7:15 PM 35.1 °F 25.9 °F 28.4 °F 77% 29.92 in 10.0 mi South 13.8 mph - N/A   Clear
7:35 PM 34.3 °F 25.0 °F 28.2 °F 78% 29.91 in 10.0 mi South 13.8 mph - N/A   Clear
7:55 PM 35.2 °F 25.0 °F 27.9 °F 74% 29.90 in 10.0 mi South 17.3 mph 23.0 mph N/A   Clear
8:15 PM 34.7 °F 25.1 °F 27.9 °F 76% 29.90 in 10.0 mi South 15.0 mph - N/A   Clear
8:35 PM 34.7 °F 25.1 °F 27.5 °F 75% 29.90 in 10.0 mi South 15.0 mph - N/A   Clear
8:55 PM 34.3 °F 24.2 °F 27.3 °F 76% 29.89 in 10.0 mi South 16.1 mph - N/A   Clear
9:35 PM 33.8 °F 23.9 °F 27.3 °F 77% 29.88 in 10.0 mi South 15.0 mph - N/A   Clear
9:55 PM 34.3 °F 24.2 °F 27.0 °F 74% 29.87 in 10.0 mi South 16.1 mph - N/A   Clear
10:15 PM 33.8 °F 23.5 °F 27.1 °F 77% 29.87 in 10.0 mi South 16.1 mph - N/A   Clear
10:35 PM 33.3 °F 24.6 °F 27.1 °F 78% 29.86 in 10.0 mi South 11.5 mph - N/A   Clear
10:55 PM 34.3 °F 25.5 °F 26.6 °F 73% 29.84 in 10.0 mi South 12.7 mph - N/A   Clear
11:15 PM 34.0 °F 25.0 °F 26.6 °F 74% 29.84 in 10.0 mi SSE 12.7 mph - N/A   Clear
11:35 PM 33.3 °F 23.7 °F 27.0 °F 78% 29.82 in 10.0 mi SSE 13.8 mph - N/A   Clear
11:55 PM 33.4 °F 24.3 °F 26.8 °F 77% 29.81 in 10.0 mi SSE 12.7 mph - N/A   Clear